Home > Time Zones > World Clock > Weather > U.S.A. > Hilo > Past weeks

Flag for U.S.A. Weather past 2 weeks in Hilo, Hawaii, U.S.A.

Now
76 °F

Light rain. Fog.


Feels Like: 75 °F
Forecast: 70 / 81 °F
Wind: No wind

Location: Hilo International Airport

Current Time: Aug 1, 2014 at 9:06:32 PM

Latest Report: Aug 1, 2014 at 7:53 PM


Visibility: 6 mi

Pressure: 29.98 "Hg

Humidity: 94%

Dew point: 74 °F

Location of HiloLocation

Historic Weather in Hilo — Graph

°F

Hilo temperature yesterday

Maximum temperature yesterday: 85 °F (at 1:53 PM)
Minimum temperature yesterday: 72 °F (at 3:45 AM)
Average temperature yesterday: 78 °F

Past Weeks' High & Low Weather Summary

 TemperatureHumidityPressure
High87 °F (Jul 26, 12:53 PM)100% (Jul 19, 8:21 PM)30.10 "Hg (Jul 19, 8:21 PM)
Low69 °F (Jul 26, 5:53 AM)55% (Jul 27, 10:53 AM)29.69 "Hg (Jul 17, 7:53 PM)
Average76 °F84%30.00 "Hg
* Reported Jul 17 7:17 PM — Aug 1 7:53 PM, Hilo, Weather by CustomWeather, © 2014

Note: Actual official high and low records may vary slightly from our data, if they occured in-between our weather recording intervals... More about our weather records

Advertising

Hilo weather history for previous 24 hours

 ConditionsComfort  
Time TempWeatherWind HumidityBarometerVisibility
7:53 PM
Aug 1
76 °FLight rain. Fog.No wind94%29.98 "Hg6 mi
7:34 PM75 °FLight rain. Fog.3 mph100%29.98 "Hg6 mi
6:53 PM75 °FLight rain. Fog.6 mph96%29.96 "Hg2 mi
6:37 PM75 °FRain. Fog.12 mph94%29.96 "Hg2 mi
6:22 PM75 °FRain. Fog.10 mph100%29.96 "Hg2 mi
6:11 PM75 °FRain. Fog.6 mph94%29.95 "Hg2 mi
5:53 PM76 °FHeavy rain. Fog.No wind94%29.94 "Hg2 mi
5:46 PM75 °FHeavy rain. Fog.3 mph94%29.95 "Hg1 mi
5:35 PM75 °FRain. Fog.3 mph100%29.94 "Hg2 mi
5:04 PM77 °FHeavy rain. Fog.7 mph94%29.94 "Hg1 mi
4:53 PM77 °FRain. Fog.10 mph94%29.93 "Hg2 mi
4:28 PM77 °FHeavy rain. Fog.5 mph94%29.94 "Hg1 mi
4:15 PM77 °FLight rain. Fog.6 mph94%29.94 "Hg2 mi
4:05 PM77 °FRain. Fog.3 mph94%29.94 "Hg2 mi
3:53 PM76 °FRain. Fog.7 mph97%29.94 "Hg1 mi
3:34 PM77 °FRain. Fog.6 mph94%29.95 "Hg2 mi
3:01 PM77 °FHeavy rain. Fog.5 mph94%29.95 "Hg1 mi
2:38 PM77 °FRain. Fog.5 mph94%29.95 "Hg2 mi
2:10 PM77 °FRain. Fog.8 mph94%29.96 "Hg2 mi
1:53 PM77 °FHeavy rain. Fog.10 mph94%29.96 "Hg1 mi
1:00 PM77 °FLight rain. Fog.8 mph94%29.98 "Hg2 mi
11:53 AM77 °FLight rain. Fog.6 mph94%29.99 "Hg2 mi
10:53 AM76 °FLight rain. Fog.6 mph94%30.01 "Hg2 mi
10:44 AM75 °FLight rain. Fog.6 mph94%30.01 "Hg2 mi
10:06 AM77 °FLight rain. Fog.3 mph89%30.01 "Hg2 mi
9:53 AM78 °FLight rain. Overcast.5 mph82%30.01 "Hg5 mi
8:53 AM75 °FMostly cloudy.5 mph90%30.01 "Hg10 mi
8:40 AM75 °FLight rain. More clouds than sun.3 mph94%30.02 "Hg8 mi
8:21 AM73 °FRain. Fog.3 mph94%30.01 "Hg2 mi
8:16 AM73 °FRain. Fog.No wind94%30.01 "Hg1 mi
7:53 AM75 °FLight rain. Mostly cloudy.3 mph85%30.00 "Hg5 mi
7:25 AM73 °FMostly cloudy.7 mph89%30.00 "Hg10 mi
6:53 AM73 °FOvercast.6 mph84%29.99 "Hg10 mi
5:53 AM72 °FLight rain. Passing clouds.3 mph84%29.97 "Hg10 mi
5:25 AM72 °FPassing clouds.5 mph88%29.97 "Hg10 mi
4:53 AM73 °FPassing clouds.6 mph84%29.97 "Hg10 mi
3:53 AM74 °FPartly cloudy.6 mph88%29.97 "Hg10 mi
3:26 AM73 °FLight rain. Overcast.5 mph94%29.98 "Hg10 mi
3:19 AM73 °FLight rain. Mostly cloudy.5 mph94%29.98 "Hg10 mi
2:53 AM74 °FMostly cloudy.7 mph91%29.98 "Hg10 mi
1:53 AM75 °FMostly cloudy.5 mph90%29.98 "Hg10 mi
1:19 AM75 °FOvercast.5 mph89%29.99 "Hg10 mi
12:53 AM76 °FLight rain. Mostly cloudy.6 mph88%29.99 "Hg10 mi
11:53 PM
Jul 31
76 °FOvercast.5 mph88%30.01 "Hg10 mi
10:53 PM78 °FOvercast.No wind79%30.02 "Hg10 mi
9:53 PM80 °FMostly cloudy.5 mph74%30.01 "Hg10 mi
Weather by CustomWeather, © 2014

See weather overviewHow to use our weather pages